Theta_e
316 312 321 324 316 318 323 326 328 331 344 341 341 344 350 354 350 355 340 353 348 347 347 347 346 344 341 338 336 334 331 331 332 333 333 327 328 334 335 336 337 338 339 334 335 331 325 330 330
311 312 322 316 316 319 321 326 328 330 337 335 352 352 355 352 348 346 356 354 346 346 347 347 346 346 343 339 336 334 332 332 333 334 332 330 331 335 336 335 336 337 332 327 329 326 326 331 329
312 318 317 313 314 319 320 323 325 329 333 334 341 353 353 354 350 346 356 353 346 345 345 345 346 346 345 342 337 335 332 332 333 334 331 332 333 335 335 336 334 328 327 326 325 325 328 331 330
316 318 316 313 315 318 322 324 324 326 331 333 335 355 345 347 350 357 355 352 346 346 344 343 343 345 346 345 339 336 333 333 333 334 331 332 335 336 336 335 332 328 328 327 325 326 330 334 334
320 317 313 314 315 319 321 323 324 325 329 332 333 358 348 345 350 357 356 353 350 352 345 343 342 343 344 346 343 339 335 334 333 334 330 330 335 340 337 335 331 330 330 329 327 328 332 334 337
316 312 315 316 317 320 322 323 324 325 326 330 332 356 353 347 356 356 355 355 354 354 348 343 342 341 342 344 345 341 339 335 334 335 331 327 335 341 340 338 328 330 331 330 329 329 333 338 341
316 315 315 317 319 321 322 323 324 324 325 334 329 355 349 345 352 354 352 353 355 355 346 343 342 340 341 343 345 343 341 336 336 336 333 326 330 337 341 339 331 328 332 331 331 331 333 335 339
316 315 317 319 320 321 322 323 322 323 327 333 330 349 352 345 348 351 350 354 354 352 345 343 342 342 342 344 344 344 343 338 338 338 336 329 326 332 336 338 332 329 328 333 334 333 334 336 338
317 316 318 318 320 322 321 322 324 325 325 327 332 354 349 347 348 348 351 354 354 352 344 342 343 344 343 344 346 345 343 340 338 340 339 333 327 329 334 336 331 329 328 327 328 330 332 332 332
318 316 318 318 318 320 321 323 324 324 323 324 352 351 349 348 347 346 348 353 351 351 348 344 344 345 347 350 355 346 345 342 340 342 341 335 328 328 333 333 330 328 327 326 326 326 326 328 328
319 321 319 318 318 319 321 321 322 323 323 322 334 359 353 349 347 345 346 348 349 349 346 345 346 346 348 351 354 347 346 344 343 344 343 338 331 333 331 335 332 336 335 330 328 326 324 323 323
321 320 320 319 319 318 318 318 319 319 321 323 323 346 356 355 351 347 346 346 347 346 345 345 345 345 348 348 345 346 346 346 345 345 344 339 333 339 337 341 340 339 336 333 330 328 331 333 327
321 321 321 318 317 317 317 318 318 317 318 322 323 327 343 349 348 351 347 347 347 345 344 344 344 342 343 344 343 345 345 345 343 345 342 338 334 338 340 339 342 342 341 339 335 336 337 338 338
318 320 321 321 318 316 317 318 317 318 318 321 321 324 326 333 338 342 350 349 347 346 344 345 344 341 343 343 342 340 342 340 339 339 339 337 333 337 342 341 340 343 344 343 340 339 339 339 340
318 320 320 321 321 322 319 317 318 318 317 318 319 321 321 322 322 326 332 337 350 347 345 346 343 342 343 346 343 338 343 342 341 340 338 338 334 336 339 342 340 342 341 342 342 342 342 343 344
321 320 321 320 321 322 322 324 320 319 317 317 318 319 319 319 319 322 326 327 335 349 346 347 344 343 342 352 345 342 344 344 343 343 341 342 341 332 337 341 340 338 338 338 339 341 340 341 342
321 323 320 321 321 322 323 324 322 320 317 316 317 317 318 318 319 320 322 323 331 350 348 349 347 345 343 345 349 344 346 348 345 347 345 345 344 340 336 345 340 347 343 342 347 348 346 347 347
323 323 321 322 322 322 322 323 323 320 320 319 316 317 317 317 317 320 321 321 332 351 349 351 345 344 347 344 352 351 348 348 348 347 351 349 347 347 342 351 350 345 348 350 350 349 349 348 347
321 321 322 321 321 322 322 323 323 321 321 320 317 317 316 316 316 319 321 321 329 354 349 349 345 350 351 351 350 353 355 352 352 349 352 352 351 349 350 348 350 352 352 351 348 347 347 346 348
318 318 319 319 319 320 321 322 322 323 322 321 319 317 317 317 316 318 321 321 327 354 353 347 342 342 348 352 352 352 353 354 353 353 352 354 353 352 351 352 350 349 351 351 350 348 348 348 348
317 315 317 318 319 319 319 320 320 323 323 321 320 319 318 318 319 318 318 321 331 360 358 355 356 352 354 355 356 353 355 351 356 353 353 354 356 354 353 353 353 353 352 349 348 349 344 347 346
318 317 317 317 317 319 318 320 319 323 324 324 321 320 319 319 318 318 319 318 331 353 360 360 357 358 358 358 359 356 358 357 356 357 356 355 355 356 355 353 352 352 351 348 346 344 334 346 345
322 321 323 324 322 318 317 318 319 323 325 325 322 320 319 319 316 316 319 320 329 345 356 360 361 359 360 360 360 359 357 355 358 358 358 356 355 355 354 353 351 350 350 347 344 345 345 346 345
322 323 324 324 323 326 317 317 318 320 322 324 324 320 321 319 317 316 318 322 328 339 350 357 361 361 359 359 358 358 356 356 356 356 357 356 355 353 352 352 350 348 347 347 345 345 345 344 343
318 319 328 329 327 327 319 317 318 320 323 324 323 322 321 320 319 318 318 319 329 335 338 342 354 359 360 359 358 355 355 352 350 350 353 353 352 352 351 349 349 347 346 346 345 344 343 342 342
319 319 321 327 325 324 321 320 318 319 320 323 323 322 322 321 320 319 319 319 326 332 333 337 343 353 359 360 356 355 353 348 347 350 351 352 350 349 347 346 346 345 345 345 341 338 338 337 337
323 323 321 324 325 328 326 320 318 319 319 319 319 319 318 320 321 320 320 319 319 329 330 331 334 340 354 356 355 354 350 354 353 352 351 351 349 346 344 344 343 341 339 338 337 336 335 334 333
322 321 327 320 327 325 323 324 321 327 328 321 319 318 317 321 322 321 320 320 321 327 331 333 335 341 354 355 352 352 352 350 349 347 345 345 344 343 341 338 336 335 334 333 333 332 331 328 325
321 324 324 323 325 325 321 320 327 330 328 329 330 318 320 335 330 323 321 320 322 327 332 337 346 353 352 352 350 348 346 345 344 341 339 338 336 334 333 333 331 328 326 325 322 321 320 320 319
321 323 324 323 324 325 324 325 328 329 328 328 335 322 346 345 344 342 333 320 325 341 347 348 348 347 346 345 342 340 339 338 337 336 335 332 327 325 323 321 320 317 320 318 317 315 314 313 312
Wind_Speed
16 13 17 5 3 1 5 10 6 17 5 9 11 9 8 11 8 6 4 28 37 41 36 31 29 27 26 24 23 21 21 21 21 21 21 21 22 21 20 18 17 16 14 13 13 13 13 13 14
12 14 5 3 3 2 7 15 23 12 8 9 24 20 7 4 8 4 17 33 42 40 36 33 29 27 25 24 23 22 21 21 21 20 20 21 21 20 18 17 15 14 13 13 13 12 13 13 13
11 6 1 5 4 7 6 19 12 13 2 5 8 20 13 8 6 17 30 35 43 38 35 33 30 28 26 24 23 22 21 21 20 20 20 21 20 19 17 15 14 13 13 13 12 12 13 12 13
4 1 4 1 10 10 20 18 17 15 5 3 5 11 4 10 18 22 41 34 42 37 35 32 29 28 26 24 23 22 21 21 20 20 20 21 20 18 17 15 13 13 12 13 12 12 13 12 12
9 3 3 5 10 13 20 20 15 16 9 4 3 12 12 4 37 43 40 35 42 34 35 32 29 26 25 24 23 22 22 21 20 19 19 20 20 18 16 14 13 12 11 12 12 13 12 11 10
3 3 2 9 14 17 18 17 13 15 12 7 9 18 6 19 42 41 39 36 35 35 36 33 29 26 25 25 25 24 22 21 20 19 18 19 20 18 15 14 12 12 11 11 12 12 11 10 8
4 3 6 9 13 12 17 15 16 15 10 1 9 9 11 18 34 42 40 40 37 31 37 34 30 26 25 25 26 25 24 22 21 19 18 18 19 18 15 13 12 12 11 10 11 11 11 9 8
2 3 7 10 13 16 17 16 12 12 18 7 5 7 16 16 34 38 39 37 36 30 36 33 31 27 26 26 26 27 25 24 22 20 18 18 18 18 16 13 12 12 11 11 10 9 10 10 10
5 4 10 13 15 12 12 11 15 7 7 4 4 7 23 33 35 33 36 35 33 31 36 33 32 30 28 27 27 26 26 24 23 21 18 18 19 19 17 14 13 12 11 11 10 10 10 11 12
8 7 19 13 12 11 12 18 19 6 10 5 11 21 29 32 31 25 27 28 31 31 35 34 32 30 28 26 25 27 25 24 23 21 19 18 18 18 17 15 13 12 11 11 11 12 12 13 14
7 20 17 18 16 19 20 23 18 13 7 7 10 19 21 21 19 18 24 30 33 37 35 34 32 31 27 25 29 28 27 25 23 21 20 19 18 16 18 15 15 15 13 13 13 13 15 15 15
18 19 23 20 20 21 18 10 17 5 10 8 7 13 14 13 15 14 21 30 36 36 36 35 32 32 30 27 28 29 28 26 26 24 22 22 22 20 18 20 18 17 16 17 16 14 14 14 14
19 19 20 18 23 25 18 19 19 9 12 8 1 6 16 14 11 18 24 31 38 37 38 41 37 33 31 29 27 28 27 27 26 25 23 22 24 23 21 22 21 20 17 15 16 16 16 17 17
9 16 18 18 23 21 23 22 7 19 11 10 4 8 6 8 8 10 20 18 29 40 44 45 43 36 34 32 29 30 26 26 24 25 25 23 25 24 21 24 23 19 18 18 18 20 20 21 23
18 19 18 24 15 19 8 17 20 16 8 11 9 6 9 8 5 7 11 14 18 29 37 41 46 39 38 33 31 30 28 26 27 25 25 23 24 26 20 23 22 19 14 17 16 18 19 15 18
16 14 19 12 18 20 7 26 22 13 9 12 10 7 7 8 9 13 14 15 18 35 39 37 31 38 37 22 30 29 31 30 29 28 27 25 23 27 24 19 21 17 18 16 16 14 15 12 12
9 18 17 15 16 11 14 28 17 15 9 10 9 8 6 7 6 14 16 9 14 36 45 45 44 41 36 29 29 31 30 28 31 31 31 27 26 24 25 20 21 14 18 19 15 10 11 8 7
10 12 14 21 17 18 14 26 19 11 14 16 10 12 8 9 11 14 17 17 12 45 56 47 43 32 36 44 30 26 29 29 28 31 26 28 30 27 27 22 18 19 19 14 10 10 12 13 13
17 18 20 20 16 22 18 22 20 18 20 17 12 9 10 11 9 17 23 27 18 39 46 46 40 32 37 32 32 30 26 29 26 28 25 25 29 30 27 23 24 18 14 11 14 17 18 18 16
22 23 23 21 19 16 16 26 20 18 19 23 16 10 11 9 11 10 19 31 27 38 39 41 43 43 41 33 38 31 30 25 26 22 23 22 26 31 29 27 19 20 17 16 16 15 11 19 19
20 19 17 20 18 21 17 20 14 11 21 22 20 18 11 13 19 19 13 19 26 33 39 37 41 39 40 38 34 32 26 29 22 27 27 24 25 32 30 26 20 20 17 15 20 21 18 23 24
21 19 21 19 14 13 10 14 16 7 15 16 25 19 15 13 8 19 18 8 23 32 39 44 43 45 37 37 32 33 27 21 27 27 30 28 23 26 22 24 22 20 15 14 17 25 19 18 22
16 13 11 14 13 14 16 10 10 6 18 14 20 16 18 15 11 10 9 11 28 32 37 42 45 43 40 37 35 33 27 24 16 26 24 21 20 19 18 15 11 10 9 9 12 15 16 14 13
16 7 9 11 11 11 15 13 15 13 17 17 14 11 21 17 15 15 13 14 21 32 36 39 44 41 40 40 36 30 27 20 21 21 20 19 17 15 12 10 8 7 8 5 8 7 9 9 9
22 9 5 3 4 10 14 15 13 10 15 18 16 18 17 18 18 19 15 9 17 26 33 33 35 33 33 37 30 33 32 26 18 18 20 17 16 14 13 10 8 6 4 4 4 3 1 1 3
3 8 8 6 5 10 16 16 13 20 19 15 18 20 23 19 16 23 20 13 18 26 32 35 34 31 34 34 30 28 29 23 19 17 17 16 17 14 12 12 11 8 6 4 5 5 5 9 10
4 5 6 5 6 4 4 22 16 21 21 19 21 20 17 14 22 20 23 16 19 30 31 34 34 35 35 33 30 31 24 21 27 22 21 21 21 22 18 15 12 9 6 4 3 5 4 5 7
10 3 5 3 5 4 7 10 10 1 8 15 23 22 20 19 24 20 19 19 21 32 35 33 36 32 32 34 32 30 27 28 30 29 29 27 24 20 15 13 14 14 13 12 10 9 8 10 12
3 4 5 3 3 4 8 10 6 4 5 12 22 21 8 2 9 12 18 15 22 32 37 31 32 35 34 37 33 35 35 35 33 30 26 25 23 22 22 21 19 14 12 9 10 12 12 13 14
3 4 5 4 6 6 5 7 3 7 6 15 21 12 11 10 11 9 7 9 13 25 31 34 35 36 37 39 38 36 37 37 36 34 32 30 29 26 24 22 21 20 14 11 9 10 10 12 13
Wind_Direction
289 288 307 283 38 119 259 259 250 274 256 184 207 90 135 107 146 230 230 149 156 156 158 160 158 153 149 148 145 141 138 137 132 131 129 128 127 124 120 116 114 112 112 112 116 117 116 114 112
295 306 253 249 139 263 268 253 257 267 193 150 100 119 85 115 175 229 122 149 158 157 159 162 160 157 154 153 151 147 144 142 137 136 135 132 131 129 124 120 118 116 117 117 121 123 123 120 116
296 290 60 161 206 219 248 262 291 309 170 176 98 108 142 172 203 134 145 152 156 157 160 161 162 160 159 157 156 153 150 147 143 141 141 139 137 135 132 127 124 122 123 124 128 130 130 127 123
287 327 300 150 242 252 235 262 270 285 274 120 97 98 50 201 142 132 144 154 157 159 162 161 162 162 163 162 161 159 156 153 149 148 148 147 144 141 139 135 132 130 132 133 136 138 139 136 134
274 261 224 214 242 256 266 267 284 296 292 128 130 137 142 194 130 136 141 149 157 161 163 163 162 164 166 167 167 165 161 159 155 154 154 155 152 149 147 145 142 141 139 139 144 149 150 146 148
297 176 230 223 246 260 264 268 271 270 276 202 122 120 140 157 132 140 143 147 153 163 164 164 165 166 168 171 171 170 167 166 162 160 161 163 162 157 157 156 154 153 149 151 156 160 164 165 172
199 311 226 232 251 262 258 265 259 265 275 238 161 120 140 143 143 141 145 150 160 163 164 164 166 169 169 171 174 174 173 172 169 168 167 170 173 171 168 168 167 168 165 166 170 178 186 196 206
232 236 261 257 249 256 269 279 275 297 274 195 128 144 156 155 147 143 142 146 156 162 167 165 166 168 169 171 177 177 178 178 176 175 174 174 179 181 180 179 180 181 182 185 188 195 206 220 229
257 231 246 237 244 255 284 287 289 292 346 20 72 127 148 147 142 142 136 139 144 159 169 169 169 170 171 172 177 179 181 181 180 180 179 180 183 187 189 189 191 193 194 199 205 213 222 232 241
195 224 238 250 255 258 269 277 279 315 306 285 102 111 134 146 151 153 151 150 151 154 166 174 173 172 171 172 171 179 181 183 185 185 184 186 187 192 194 196 197 200 205 210 216 223 231 239 245
219 233 245 255 249 258 265 277 287 302 310 232 147 143 151 157 162 159 160 161 157 160 164 176 177 172 172 174 174 179 184 186 189 193 194 188 189 191 199 199 204 209 215 221 225 231 238 246 250
245 239 240 255 261 269 269 306 293 320 256 260 232 159 161 168 168 166 165 163 156 163 165 174 179 175 173 183 182 183 188 189 191 197 199 196 191 197 196 204 210 216 226 232 234 238 243 248 248
258 241 250 246 246 258 272 263 268 288 296 274 11 42 173 177 171 166 177 169 161 164 167 173 178 177 179 186 184 185 189 193 196 198 202 200 195 199 206 209 218 224 230 232 228 235 242 241 241
277 269 259 242 246 245 247 260 273 274 275 266 292 119 95 139 153 144 172 190 170 166 169 171 176 178 184 187 186 187 190 194 196 199 204 203 201 200 211 213 217 223 233 238 243 239 245 245 251
259 271 275 256 265 254 267 255 242 250 266 267 261 188 165 197 194 195 179 142 188 179 163 166 176 176 184 189 189 187 193 196 195 198 200 205 204 204 210 212 218 224 226 236 245 251 252 249 247
281 270 254 255 254 259 235 250 249 249 246 251 256 242 196 200 209 212 220 206 199 167 156 160 183 179 184 177 191 191 193 201 202 204 204 204 204 204 210 220 220 232 240 246 257 243 256 258 256
253 255 261 265 245 247 228 256 241 235 222 239 245 241 226 217 220 217 218 246 187 161 158 167 176 178 179 188 194 196 200 200 205 208 207 207 206 204 210 224 222 225 235 243 240 241 246 249 260
238 253 253 256 263 234 243 257 246 214 233 243 244 240 233 224 230 226 242 242 206 167 160 168 176 185 184 194 186 199 205 210 206 209 211 209 209 208 210 211 217 231 246 237 229 244 254 261 270
263 265 254 253 242 243 248 254 243 222 217 232 223 223 232 231 225 228 230 242 208 162 162 174 171 182 183 188 189 204 209 210 209 211 210 214 210 211 210 218 219 219 245 242 242 255 263 266 263
235 245 258 272 272 278 268 253 249 234 222 214 212 207 214 228 230 227 218 220 206 178 167 176 188 188 195 187 200 201 212 211 217 212 218 218 219 211 209 211 224 222 236 243 249 251 277 275 266
242 246 249 245 254 268 266 274 272 264 229 209 208 197 203 202 228 224 213 208 189 167 169 169 177 190 187 185 187 191 206 220 219 219 222 222 224 213 210 208 210 220 232 243 244 244 225 253 268
247 238 249 262 260 246 251 262 262 249 278 246 205 198 210 214 217 212 212 199 197 176 169 171 175 183 187 179 179 185 194 190 213 209 215 219 212 201 202 203 216 222 229 225 241 274 267 270 270
281 291 332 310 293 293 249 254 264 252 233 262 197 205 212 209 188 205 205 205 201 183 174 175 177 181 184 183 184 187 197 205 170 193 183 170 170 183 196 212 232 231 241 253 255 267 263 268 272
269 271 313 325 296 273 251 234 251 243 247 268 252 213 205 214 196 203 205 204 197 183 174 172 176 182 188 194 202 192 187 172 155 152 160 167 173 185 204 223 226 235 245 234 237 249 256 268 275
279 215 209 285 268 259 256 240 228 220 225 215 238 232 223 204 202 199 200 180 167 173 168 167 168 172 183 192 184 192 194 181 179 179 170 180 190 187 180 190 190 197 185 189 226 208 117 346 308
232 325 232 212 221 264 259 260 234 246 244 239 236 233 232 222 191 195 201 195 165 180 171 169 166 166 176 185 185 180 184 170 182 182 181 187 178 167 163 162 165 161 165 145 83 37 6 330 328
307 255 297 179 194 258 277 270 240 232 236 237 255 257 258 234 210 185 195 197 163 177 182 174 173 174 172 174 172 173 167 159 160 163 160 161 156 142 146 146 137 127 98 56 22 351 9 6 15
200 151 314 3 181 226 235 270 247 290 318 266 240 249 251 267 199 185 180 192 187 170 178 175 174 163 155 155 155 151 148 147 146 140 135 134 132 131 127 124 109 95 87 80 74 59 48 52 46
163 150 180 192 161 204 261 253 190 261 313 317 294 235 229 137 152 175 186 178 178 159 169 162 146 134 131 143 143 139 136 137 133 127 128 127 121 118 113 108 104 97 87 83 78 73 64 57 42
164 323 204 179 184 208 245 270 353 295 346 315 274 237 110 72 71 72 117 151 134 126 130 126 123 122 124 125 122 119 124 124 124 122 125 123 115 112 108 104 97 86 90 93 80 63 44 28 18